Location: Unspecified
(0.0000°N, 0.0000°E)
Time: 16:31:20
(UTC+00:00)

Daily predictions for brighter satellites

Satellite Brightness Start Highest point End
(mag) Time Altitude Azimuth Time Altitude Azimuth Time Altitude Azimuth
Cosmos 2285 Rocket 4.2 18:12:07 10° NNW 18:18:25 82° WSW 18:24:42 10° S
SWIFT 3.3 18:14:46 10° W 18:18:54 48° NNW 18:23:02 10° NE
Cosmos 2263 Rocket 2.4 18:14:01 10° N 18:19:28 52° ENE 18:24:54 10° SSE
Cosmos 1455 3.7 18:21:18 10° SE 18:23:50 17° E 18:26:22 10° NE
Tiangong 2 2.9 18:25:23 10° WNW 18:28:08 28° SW 18:30:54 10° SSE
Ariane H10 1.8 18:24:22 10° W 18:29:12 85° S 18:32:20 10° E
DELTA 2 R/B (1) 4.4 18:24:56 10° NNW 18:29:54 34° NE 18:34:41 11° ESE
CZ-4C R/B 3.5 18:30:54 10° SE 18:33:10 13° ESE 18:35:25 10° E
GPS 2-12 Rocket1 4.3 18:29:10 10° W 18:33:30 34° SSW 18:37:46 10° SE
Cosmos 2221 4.3 18:29:35 10° SSW 18:33:33 37° W 18:37:30 10° NNW
Cosmos 2151 3.6 18:34:36 10° NNW 18:38:51 63° W 18:43:06 10° S
Ariane H10+ 3.4 18:37:12 10° WNW 18:40:37 57° N 18:49:07 12° E
Cosmos 1371 Rocket 4.5 18:37:28 10° S 18:42:17 37° ESE 18:47:07 10° NE
Ariane H10+ 1.3 18:41:59 10° WNW 18:44:03 41° NNE 18:46:57 15° E
IRAS Rocket 4.5 18:39:54 10° SSE 18:45:13 48° ENE 18:50:28 10° N
Cosmos 1340 3.9 18:46:08 10° SSW 18:49:45 44° W 18:53:22 10° NNW
ATLAS 3B CENTAUR R/B 4.5 18:36:16 10° NW 18:50:14 30° N 18:56:32 11° ENE
Meteor 2-2 Rocket 4.3 18:45:39 10° S 18:51:23 87° E 18:57:13 10° N
CAT/Thesee 4.5 18:47:03 10° WSW 18:51:48 29° S 18:52:54 21° SE
Ariane H10-3 1.2 18:50:11 10° W 18:53:14 50° S 18:54:02 29° SE
EXPRESS MD2 2.8 18:51:01 10° NW 18:53:34 47° SW 18:54:48 20° SSE
ARIANE 42L R/B 3.3 18:40:40 10° W 18:53:50 80° S 18:56:16 22° E
Meteor 2-21 4.5 18:50:30 10° S 18:56:35 85° W 19:02:43 10° N
ARIANE 5 R/B 3.5 18:52:20 10° WSW 18:57:09 38° S 18:59:09 22° SE
In-Cosmos 22 Rocket 4.4 18:57:42 10° NNE 19:02:42 43° E 19:07:14 13° SSE
Cosmos 2056 Rocket 3.7 18:58:08 10° S 19:03:21 49° ESE 19:08:33 10° NNE
ALOS 4.0 19:00:07 10° SSW 19:04:20 34° WSW 19:08:31 10° NW
Cosmos 1328 Rocket 3.4 19:00:03 10° S 19:04:24 66° E 19:08:45 10° NNE
SL-16 R/B 2.3 18:59:04 10° S 19:04:31 48° ESE 19:09:55 10° NNE
Cosmos 2154 Rocket 4.3 19:01:20 10° S 19:07:37 71° W 19:13:50 10° N
Cosmos 2228 Rocket 3.3 19:03:59 10° SSE 19:08:11 44° E 19:12:21 10° NNE
H-2A R/B 2.7 19:05:59 10° S 19:09:40 79° W 19:13:22 10° NNW
Spelda 30 2.8 19:11:25 10° W 19:13:59 73° S 19:15:49 35° E
Skynet4D Del rocket 4.4 19:11:10 10° W 19:16:13 39° SSW 19:18:56 23° SSE
Kakehashi 4.4 19:13:18 10° WSW 19:18:56 63° NNW 19:30:12 10° NE
Cosmos 1624 Rocket 3.9 19:14:39 10° S 19:19:54 85° E 19:25:05 10° NNE
Cosmos 2251 Rocket 4.2 19:15:47 10° NNE 19:20:08 33° ENE 19:20:08 33° ENE
Cosmos 1805 Rocket 3.4 19:20:23 10° N 19:24:42 89° E 19:27:06 26° S
Atlas 2A Centaur Rocket 2.7 19:23:46 10° WSW 19:26:53 75° NNW 19:39:06 10° ENE
ARIANE 5 DEB (SYLDA) 4.5 19:22:54 10° WNW 19:27:17 77° N 19:33:04 31° E
SEDSat Delta rocket 3.4 19:24:28 10° SW 19:27:43 42° S 19:27:43 42° S
FREGAT/IRIS 4.1 19:29:57 30° NNW 19:29:57 30° NNW 19:31:36 10° NNW
ARIANE 5 DEB (SYLDA) 4.4 19:12:25 10° W 19:35:07 76° S 19:37:14 46° ESE
Cosmos 2341 Rocket 4.5 19:28:56 10° SSW 19:35:15 63° W 19:41:31 10° N
Cosmos 2218 Rocket 4.0 19:29:25 10° S 19:35:35 60° E 19:41:49 10° NNE
Cosmos 2344 3.7 19:27:29 10° SSW 19:36:49 90° WNW 19:44:29 10° NNE
SPOT 3 Rocket 4.4 19:33:12 10° S 19:38:13 49° WSW 19:43:12 10° NNW
Cosmos 1151 Rocket 3.4 19:36:48 10° SSW 19:40:59 60° W 19:45:10 10° N
Cosmos 2366 rocket 3.9 19:42:24 57° SE 19:43:12 62° E 19:49:18 10° NNE
SL-8 Rocket 4.1 19:44:15 10° S 19:50:35 76° W 19:56:52 10° N
USA 267 3.1 19:49:40 40° NE 19:52:19 81° SE 19:58:51 10° SSW
Cosmos 1844 Rocket 2.9 19:53:33 10° NNW 19:58:10 62° N 19:58:10 62° N
CZ-3C R/B 3.9 20:09:27 10° SW 20:44:19 11° ENE 20:45:58 10° ENE
CZ-4C R/B 3.6 20:17:06 10° SW 20:20:57 29° WNW 20:20:57 29° WNW
CZ-3C R/B 4.4 21:04:16 10° WSW 22:01:56 18° ESE 22:44:41 10° ESE
CZ-3C R/B 4.4 21:04:16 10° WSW 22:01:57 18° ESE 22:44:41 10° ESE
CZ-3C R/B 4.4 21:04:16 10° WSW 22:01:54 18° ESE 22:44:41 10° ESE
